DateTime,F1_A11,F1_S11,BsB_S11,BsG_S11,BsR_S11,BbsB_S11,BbsG_S11,BbsR_S11,BaB_A11,BaG_A11,BaR_A11,T_S11,U_S11,P_S11,T1_A11
2016-05-22T00:00:00Z,0000380,21000600,,,,,,,,,,26.3,00.8,0659.9,34.6
2016-05-22T00:01:00Z,0000380,21000600,,,,,,,,,,26.3,00.8,0659.9,34.6
2016-05-22T00:02:00Z,0000380,21000600,,,,,,,,,,26.3,00.8,0659.9,34.6
2016-05-22T00:03:00Z,0000380,61000600,,,,,,,,,,26.4,00.8,0659.9,34.6
2016-05-22T00:04:00Z,0000380,41000600,0005.71,0003.59,0002.29,0000.00,0000.37,0000.34,0000.17,0000.15,0000.14,26.5,00.8,0660.7,34.6
2016-05-22T00:05:00Z,0000380,01000600,0006.38,0004.44,0002.49,0000.38,0000.25,0000.50,0000.47,0000.25,0000.64,26.5,00.9,0660.7,34.6
2016-05-22T00:06:00Z,0000380,01000600,0006.78,0005.00,0002.68,0000.58,0000.75,0000.48,0000.08,0000.31,-000.11,26.5,00.7,0660.8,34.6
2016-05-22T00:07:00Z,0000380,01000600,0006.98,0004.86,0002.39,0000.43,0000.41,0000.10,0000.69,0000.31,0000.09,26.5,00.7,0660.8,34.6
2016-05-22T00:08:00Z,0000380,01000600,0007.23,0005.20,0002.48,0000.45,0000.38,0000.45,0000.25,0000.36,0000.63,26.5,00.7,0660.7,34.6
2016-05-22T00:09:00Z,0000380,01000600,0007.04,0004.18,0002.76,0000.82,0000.18,0000.53,0000.30,0000.30,-000.18,26.5,00.8,0660.7,34.6
2016-05-22T00:10:00Z,0000380,01000600,0007.57,0004.88,0002.22,0000.59,0000.72,0000.46,0000.44,0000.39,0000.19,26.5,00.7,0660.8,34.6
2016-05-22T00:11:00Z,0000380,01000600,0006.87,0004.66,0002.53,0000.11,0000.41,0000.72,0000.16,0000.31,0000.61,26.5,00.7,0660.8,34.6
2016-05-22T00:12:00Z,0000380,01000600,0007.22,0004.79,0002.70,0000.90,0000.49,0000.42,0000.44,0000.21,0000.31,26.5,00.7,0660.8,34.6
2016-05-22T00:13:00Z,0000380,01000600,0006.19,0003.92,0002.23,0000.38,0000.53,0000.46,0000.24,0000.25,0000.02,26.5,00.7,0660.7,34.6
2016-05-22T00:14:00Z,0000380,01000600,0006.23,0003.90,0002.27,0000.54,0000.46,0000.32,0000.45,0000.47,0000.28,26.5,00.7,0660.7,34.6
2016-05-22T00:15:00Z,0000380,01000600,0006.62,0003.61,0002.76,0000.69,0000.57,0000.48,0000.41,0000.11,0000.16,26.5,00.7,0660.8,34.6
2016-05-22T00:16:00Z,0000380,01000600,0005.14,0004.58,0002.44,0001.04,0000.37,0000.43,0000.16,0000.43,-000.02,26.5,00.7,0660.7,34.6
2016-05-22T00:17:00Z,0000380,01000600,0006.35,0004.81,0002.43,0000.45,0000.19,0000.30,0000.45,0000.17,0000.25,26.5,00.6,0660.7,34.6
2016-05-22T00:18:00Z,0000380,01000600,0005.22,0004.18,0001.87,0000.75,0000.49,0000.10,0000.47,0000.21,0000.19,26.5,00.6,0660.7,34.6
2016-05-22T00:19:00Z,0000380,01000600,0006.39,0004.64,0002.00,0000.50,0000.48,0000.30,0000.30,0000.41,0000.37,26.5,00.7,0660.7,34.6
2016-05-22T00:20:00Z,0000380,01000600,0006.44,0003.76,0001.80,0000.14,0000.38,0000.13,0000.42,0000.32,0000.33,26.5,00.6,0660.7,34.6
2016-05-22T00:21:00Z,0000380,01000600,0005.88,0004.46,0002.22,0000.34,0000.00,0000.18,0000.28,0000.09,-000.21,26.5,00.6,0660.7,34.6
2016-05-22T00:22:00Z,0000380,01000600,0007.87,0004.11,0002.41,0000.37,0000.76,0000.58,0000.33,0000.49,0000.55,26.5,00.6,0660.8,34.6
2016-05-22T00:23:00Z,0000380,01000600,0007.26,0004.77,0002.31,0000.11,0000.43,0000.02,0000.19,0000.30,0000.46,26.5,00.6,0660.8,34.6
2016-05-22T00:24:00Z,0000380,01000600,0007.51,0005.05,0002.75,0000.34,0000.96,0000.42,0000.52,0000.27,-000.28,26.5,00.6,0660.8,34.6
2016-05-22T00:25:00Z,0000380,01000600,0007.81,0005.20,0002.61,0000.34,0000.59,-000.03,0000.57,0000.38,0000.82,26.5,00.6,0660.8,34.6
2016-05-22T00:26:00Z,0000380,01000600,0007.76,0004.92,0002.65,0000.83,0000.11,0000.46,0000.20,0000.36,0000.24,26.5,00.6,0660.8,34.6
2016-05-22T00:27:00Z,0000380,01000600,0007.51,0004.64,0003.00,0000.67,0000.57,0000.34,0000.37,0000.30,-000.09,26.5,00.6,0660.8,34.6
2016-05-22T00:28:00Z,0000380,01000600,0007.51,0005.06,0002.59,0000.22,0000.24,0000.35,0000.25,0000.25,0000.46,26.5,00.5,0660.8,34.6
2016-05-22T00:29:00Z,0000380,01000600,0006.89,0004.36,0002.22,0000.99,0000.73,-000.06,0000.33,0000.45,0000.30,26.5,00.5,0660.8,34.6
2016-05-22T00:30:00Z,0000380,01000600,0007.39,0004.39,0002.70,0000.51,0000.41,0000.42,0000.29,0000.27,-000.11,26.5,00.5,0660.8,34.7
2016-05-22T00:31:00Z,0000380,01000600,0007.41,0004.11,0002.91,0000.45,0000.61,0000.26,0000.48,0000.37,0000.75,26.5,00.5,0660.8,34.7
2016-05-22T00:32:00Z,0000380,01000600,0006.56,0004.40,0002.95,0000.18,0000.25,0000.21,0000.38,0000.22,0000.09,26.5,00.5,0660.8,34.7
2016-05-22T00:33:00Z,0000380,01000600,0005.98,0004.14,0002.40,0000.42,-000.08,0000.06,0000.47,0000.24,0000.08,26.5,00.4,0660.8,34.7
2016-05-22T00:34:00Z,0000380,01000600,0007.14,0004.32,0003.30,0000.37,0000.11,0000.10,0000.19,0000.60,0000.32,26.5,00.5,0660.8,34.7
2016-05-22T00:35:00Z,0000380,01000600,0005.99,0004.85,0003.10,0000.62,0000.24,0000.61,0000.28,0000.16,0000.32,26.5,00.5,0660.8,34.7
2016-05-22T00:36:00Z,0000380,01000600,0006.60,0004.73,0002.71,0000.69,0000.21,0000.26,0000.52,0000.26,-000.00,26.6,00.4,0660.8,34.7
2016-05-22T00:37:00Z,0000380,01000600,0008.30,0004.76,0002.17,0000.24,0000.49,0000.00,0000.18,0000.19,0000.68,26.6,00.4,0660.8,34.7
2016-05-22T00:38:00Z,0000380,01000600,0005.77,0004.71,0002.59,0000.32,0000.08,0000.18,0000.49,0000.61,0000.27,26.6,00.4,0660.8,34.7
2016-05-22T00:39:00Z,0000380,01000600,0006.29,0004.40,0002.23,0000.48,0000.33,-000.02,0000.31,0000.21,0000.07,26.6,00.4,0660.8,34.7
2016-05-22T00:40:00Z,0000380,01000600,0006.75,0004.07,0002.32,0000.11,0000.45,0000.27,0000.28,0000.23,0000.12,26.6,00.4,0660.8,34.7
2016-05-22T00:41:00Z,0000380,01000600,0007.17,0004.25,0002.76,0000.85,0000.53,-000.11,0000.51,0000.28,0000.13,26.7,00.4,0660.9,34.7
2016-05-22T00:42:00Z,0000380,01010600,0007.34,0004.80,0002.57,0000.51,0000.61,0000.82,0000.36,0000.22,0000.33,26.7,00.4,0660.9,34.7
2016-05-22T00:43:00Z,0000380,01000600,0008.22,0004.84,0002.97,0000.64,0000.70,0000.37,0000.22,0000.43,0000.26,26.7,00.3,0660.9,34.7
2016-05-22T00:44:00Z,0000380,01000600,0006.49,0004.76,0002.56,0000.91,0000.80,0000.30,0000.25,0000.41,0000.05,26.7,00.3,0660.9,34.7
2016-05-22T00:45:00Z,0000380,01000600,0007.22,0003.79,0002.75,0000.22,0000.49,0000.53,0000.43,0000.18,0000.18,26.7,00.3,0660.9,34.7
2016-05-22T00:46:00Z,0000380,01000600,0006.00,0004.65,0002.42,0000.86,0000.30,0000.19,0000.46,0000.05,0000.21,26.7,00.3,0660.9,34.7
2016-05-22T00:47:00Z,0000380,01000600,0006.29,0005.01,0002.75,0000.27,0000.54,0000.27,0000.12,0000.55,0000.29,26.7,00.3,0660.9,34.7
2016-05-22T00:48:00Z,0000380,01000600,0006.51,0004.24,0002.71,0000.27,0000.51,0000.10,0000.45,0000.12,0000.19,26.7,00.3,0660.9,34.7
2016-05-22T00:49:00Z,0000380,01000600,0007.22,0003.90,0002.45,0001.22,0000.43,0000.45,0000.32,0000.40,0000.54,26.7,00.3,0660.9,34.7
2016-05-22T00:50:00Z,0000380,01000600,0005.76,0004.63,0002.99,0000.14,0000.94,0000.80,0000.50,0000.16,0000.07,26.6,00.3,0660.9,34.7
2016-05-22T00:51:00Z,0000380,01000600,0007.54,0004.31,0002.36,0000.40,0000.43,0000.19,0000.24,0000.13,-000.10,26.6,00.3,0660.9,34.7
2016-05-22T00:52:00Z,0000380,01000600,0006.37,0004.24,0002.48,0000.61,0000.48,0000.16,0000.22,0000.41,0000.09,26.6,00.2,0660.9,34.7
2016-05-22T00:53:00Z,0000380,01000600,0005.94,0004.15,0002.14,0000.27,0000.35,0000.08,0000.43,0000.14,0000.55,26.6,00.3,0660.9,34.7
2016-05-22T00:54:00Z,0000380,01000600,0006.04,0003.68,0002.52,0000.22,0000.30,0000.13,0000.34,0000.38,0000.29,26.6,00.3,0660.9,34.7
2016-05-22T00:55:00Z,0000380,01000600,0006.00,0003.55,0002.46,0000.51,0000.65,-000.24,0000.22,0000.37,-000.13,26.6,00.3,0660.9,34.7
2016-05-22T00:56:00Z,0000380,01000600,0005.12,0004.03,0002.28,0000.99,0000.35,0000.43,0000.22,0000.21,0000.21,26.5,00.2,0660.9,34.7
2016-05-22T00:57:00Z,0000380,41000600,,,,,,,,,,,,0660.9,34.7
2016-05-22T00:58:00Z,0000380,61000600,,,,,,,,,,26.5,00.4,0660.0,34.7
2016-05-22T00:59:00Z,0000380,21000600,,,,,,,,,,26.5,00.3,0660.0,34.7
2016-05-22T01:00:00Z,0000380,21000600,,,,,,,,,,26.5,00.3,0660.0,34.6
2016-05-22T01:01:00Z,0000380,21000600,,,,,,,,,,26.5,00.3,0660.0,34.6
2016-05-22T01:02:00Z,0000380,21000600,,,,,,,,,,26.5,00.3,0660.0,34.6
2016-05-22T01:03:00Z,0000380,61000600,,,,,,,,,,26.5,00.3,0659.9,34.6
2016-05-22T01:04:00Z,0000380,41000600,0006.07,0004.28,0002.06,0000.54,0000.57,0000.10,0000.56,0000.17,0000.38,26.5,00.3,0660.7,34.6
2016-05-22T01:05:00Z,0000380,01000600,0005.93,0004.46,0002.29,0000.72,0000.03,0000.29,0000.25,0000.34,0000.13,26.6,00.2,0660.7,34.6
2016-05-22T01:06:00Z,0000380,01000600,0006.15,0004.16,0001.57,0000.70,0000.37,0000.42,0000.33,0000.22,0000.15,26.6,00.2,0660.8,34.6
2016-05-22T01:07:00Z,0000380,01000600,0005.90,0003.84,0002.15,0000.56,0000.65,0000.37,0000.27,0000.36,0000.45,26.6,00.2,0660.8,34.6
2016-05-22T01:08:00Z,0000380,01000600,0005.92,0003.47,0001.70,0000.34,0000.48,0000.45,0000.14,0000.13,0000.23,26.7,00.2,0660.7,34.6
2016-05-22T01:09:00Z,0000380,01000600,0005.69,0003.51,0002.08,0000.77,0000.53,0000.21,0000.31,0000.40,0000.10,26.7,00.1,0660.7,34.6
2016-05-22T01:10:00Z,0000380,01000600,0004.31,0003.92,0002.04,0000.72,0000.10,0000.18,0000.38,0000.18,0000.05,26.7,00.1,0660.7,34.6
2016-05-22T01:11:00Z,0000380,01000600,0005.11,0003.52,0001.37,0000.66,0000.32,0000.14,0000.07,0000.21,-000.09,26.7,00.2,0660.7,34.6
2016-05-22T01:12:00Z,0000380,01000600,0004.30,0003.04,0001.78,0000.29,0000.24,0000.00,0000.36,-000.17,0000.39,26.7,00.2,0660.7,34.6
2016-05-22T01:13:00Z,0000380,01000600,0004.69,0003.31,0001.85,-000.14,0000.29,0000.21,0000.29,0000.27,-000.16,26.7,00.1,0660.7,34.6
2016-05-22T01:14:00Z,0000380,01000600,0004.16,0003.22,0001.77,0000.62,0000.22,0000.21,0000.28,0000.33,0000.56,26.7,00.1,0660.6,34.6
2016-05-22T01:15:00Z,0000380,01000600,0004.37,0002.62,0001.41,-000.05,-000.10,0000.24,0000.17,0000.28,-000.13,26.7,00.1,0660.6,34.7
2016-05-22T01:16:00Z,0000380,01000600,0003.37,0001.95,0001.44,0000.38,0000.37,0000.19,0000.12,0000.12,-000.17,26.7,00.1,0660.6,34.7
2016-05-22T01:17:00Z,0000380,01000600,0003.73,0002.58,0001.18,0000.30,0000.06,0000.18,0000.38,0000.10,0000.51,26.7,00.1,0660.6,34.7
2016-05-22T01:18:00Z,0000380,01000600,0003.66,0002.11,0001.29,0000.27,0000.24,0000.42,0000.15,0000.12,0000.11,26.7,00.1,0660.6,34.7
2016-05-22T01:19:00Z,0000380,01000600,0003.96,0001.66,0001.05,0000.26,-000.27,0000.35,0000.34,0000.31,0000.16,26.7,00.1,0660.5,34.7
2016-05-22T01:20:00Z,0000380,01000600,0003.58,0002.35,0001.31,0000.69,0000.40,0000.06,0000.13,0000.01,0000.04,26.7,00.1,0660.5,34.7
2016-05-22T01:21:00Z,0000380,01000600,0002.66,0001.87,0001.81,-000.03,-000.13,0000.18,0000.03,0000.13,-000.02,26.7,00.1,0660.5,34.7
2016-05-22T01:22:00Z,0000380,01000600,0003.17,0002.02,0001.01,0000.40,-000.02,-000.19,0000.14,0000.18,0000.53,26.7,00.1,0660.5,34.7
2016-05-22T01:23:00Z,0000380,01000600,0002.64,0002.32,0000.27,0000.22,-000.08,0000.00,0000.24,0000.09,-000.11,26.7,00.2,0660.5,34.7
2016-05-22T01:24:00Z,0000380,01000600,0003.73,0002.04,0001.72,0000.08,0000.11,0000.32,0000.11,0000.22,-000.01,26.7,00.1,0660.5,34.7
2016-05-22T01:25:00Z,0000380,01000600,0003.11,0001.70,0000.71,0000.45,0000.27,0000.71,0000.21,0000.23,0000.40,26.7,00.2,0660.5,34.7
2016-05-22T01:26:00Z,0000380,01000600,0002.96,0001.72,0000.88,0000.18,-000.10,0000.08,0000.13,0000.10,0000.12,26.7,00.1,0660.5,34.7
2016-05-22T01:27:00Z,0000380,01000600,0003.20,0001.95,0000.42,0000.40,0000.46,-000.14,0000.30,0000.04,-000.06,26.7,00.2,0660.5,34.7
2016-05-22T01:28:00Z,0000380,01000600,0001.63,0001.91,0000.57,0000.30,0000.29,0000.19,0000.06,0000.21,0000.19,26.7,00.2,0660.5,34.7
2016-05-22T01:29:00Z,0000380,01000600,0002.68,0001.60,0000.84,0000.13,0000.14,0000.37,0000.13,0000.33,-000.11,26.7,00.2,0660.5,34.7
2016-05-22T01:30:00Z,0000380,01000600,0003.60,0001.57,0000.45,0000.37,0000.18,-000.02,0000.08,-000.08,0000.32,26.7,00.2,0660.5,34.7
2016-05-22T01:31:00Z,0000380,01000600,0002.47,0001.73,0000.68,0000.18,0000.33,-000.19,0000.44,0000.34,-000.12,26.6,00.2,0660.5,34.7
2016-05-22T01:32:00Z,0000380,01000600,0002.06,0002.36,0000.83,0000.18,0000.27,-000.10,0000.07,0000.08,0000.19,26.7,00.2,0660.5,34.7
2016-05-22T01:33:00Z,0000380,01000600,0001.44,0001.54,0000.51,0000.59,0000.19,-000.05,0000.22,0000.20,0000.22,26.7,00.2,0660.5,34.7
2016-05-22T01:34:00Z,0000380,01000600,0001.77,0002.15,0000.85,0000.69,0000.21,0000.16,0000.26,0000.24,0000.40,26.7,00.2,0660.4,34.7
2016-05-22T01:35:00Z,0000380,01000600,0002.33,0001.47,0000.74,-000.26,0000.14,0000.10,0000.10,0000.09,-000.02,26.7,00.3,0660.4,34.7
2016-05-22T01:36:00Z,0000380,01000600,0001.91,0002.19,0000.98,0000.18,-000.03,0000.32,0000.19,0000.29,0000.04,26.7,00.2,0660.4,34.7
2016-05-22T01:37:00Z,0000380,01000600,0002.25,0001.60,0000.54,0000.29,-000.24,0000.30,0000.38,0000.04,0000.35,26.6,00.2,0660.4,34.7
2016-05-22T01:38:00Z,0000380,01000600,0003.37,0001.63,0000.78,0000.05,-000.06,0000.38,0000.18,0000.15,-000.15,26.6,00.3,0660.4,34.7
2016-05-22T01:39:00Z,0000380,01000600,0001.62,0001.67,0000.55,-000.24,0000.30,0000.24,0000.20,-000.05,0000.21,26.6,00.3,0660.4,34.7
2016-05-22T01:40:00Z,0000380,01000600,0003.29,0001.23,0000.98,-000.40,0000.00,0000.06,0000.08,0000.22,0000.00,26.6,00.3,0660.4,34.7
2016-05-22T01:41:00Z,0000380,01000600,0002.05,0001.73,0000.47,0000.22,-000.30,-000.29,0000.40,0000.38,0000.08,26.6,00.2,0660.4,34.7
2016-05-22T01:42:00Z,0000380,01000600,0001.75,0001.54,0000.50,-000.21,0000.24,0000.16,0000.09,0000.05,0000.16,26.6,00.3,0660.4,34.7
2016-05-22T01:43:00Z,0000380,01000600,0002.63,0001.63,0000.62,0000.11,-000.19,-000.03,0000.18,0000.27,0000.46,26.6,00.3,0660.4,34.7
2016-05-22T01:44:00Z,0000380,01000600,0001.77,0001.00,0000.25,-000.03,0000.05,-000.32,0000.18,-000.06,-000.16,26.6,00.3,0660.3,34.7
2016-05-22T01:45:00Z,0000380,01000600,0001.96,0001.81,0000.39,-000.48,0000.56,0000.34,0000.01,0000.49,-000.43,26.6,00.4,0660.4,34.7
2016-05-22T01:46:00Z,0000380,01000600,0001.89,0001.45,0000.85,0000.26,0000.13,0000.37,0000.38,0000.04,0000.83,26.6,00.3,0660.4,34.7
2016-05-22T01:47:00Z,0000380,01000600,0002.49,0001.69,0000.68,0000.51,0000.11,0000.06,0000.13,0000.05,-000.08,26.6,00.3,0660.4,34.7
2016-05-22T01:48:00Z,0000380,01000600,0002.78,0001.38,0000.57,0000.62,0000.02,0000.13,0000.20,0000.12,0000.17,26.6,00.3,0660.4,34.7
2016-05-22T01:49:00Z,0000380,01000600,0001.34,0001.23,0001.02,0000.34,0000.21,0000.29,0000.11,0000.25,0000.23,26.5,00.3,0660.3,34.7
2016-05-22T01:50:00Z,0000380,01000600,0001.53,0001.16,0000.99,0000.29,-000.24,0000.10,0000.37,0000.11,0000.17,26.6,00.4,0660.3,34.7
2016-05-22T01:51:00Z,0000380,01000600,0001.00,0001.12,0000.35,0000.40,-000.10,0000.02,0000.17,0000.05,0000.05,26.6,00.4,0660.3,34.7
2016-05-22T01:52:00Z,0000380,01000600,0002.72,0001.02,0000.48,-000.21,-000.16,0000.35,-000.06,0000.12,-000.39,26.5,00.4,0660.3,34.7
2016-05-22T01:53:00Z,0000380,01000600,0002.04,0001.24,0000.53,-000.08,0000.05,0000.10,0000.29,0000.20,0000.53,26.5,00.5,0660.3,34.7
2016-05-22T01:54:00Z,0000380,01000600,0001.71,0000.87,0000.38,0000.21,-000.02,-000.13,0000.05,0000.16,0000.01,26.5,00.5,0660.3,34.7
2016-05-22T01:55:00Z,0000380,01000600,0000.59,0001.70,0000.70,0000.35,-000.08,0000.02,0000.08,0000.14,0000.30,26.5,00.5,0660.3,34.7
2016-05-22T01:56:00Z,0000380,01000600,0001.33,0001.09,0000.48,0000.32,0000.16,-000.02,0000.28,0000.06,0000.01,26.5,00.5,0660.3,34.7
2016-05-22T01:57:00Z,0000380,41000600,,,,,,,,,,,,0660.2,34.7
2016-05-22T01:58:00Z,0000380,61000600,,,,,,,,,,26.5,00.4,0659.4,34.7
2016-05-22T01:59:00Z,0000380,21000600,,,,,,,,,,26.5,00.4,0659.4,34.7
2016-05-22T02:00:00Z,0000380,21000600,,,,,,,,,,26.5,00.4,0659.4,34.7
2016-05-22T02:01:00Z,0000380,21000600,,,,,,,,,,26.5,00.4,0659.4,34.7
2016-05-22T02:02:00Z,0000380,21000600,,,,,,,,,,26.5,00.4,0659.4,34.7
2016-05-22T02:03:00Z,0000380,61000600,,,,,,,,,,26.5,00.4,0659.4,34.7
2016-05-22T02:04:00Z,0000380,41000600,0001.89,0001.04,0000.80,0000.72,0000.10,-000.13,0000.33,0000.19,0000.37,26.5,00.5,0660.1,34.7
2016-05-22T02:05:00Z,0000380,01000600,0001.45,0000.63,0001.06,0000.35,0000.05,0000.05,0000.15,0000.28,-000.11,26.5,00.5,0660.2,34.7
2016-05-22T02:06:00Z,0000380,01000600,0001.89,0001.02,0000.49,0000.51,-000.02,0000.32,-000.03,-000.07,0000.18,26.5,00.5,0660.2,34.7
2016-05-22T02:07:00Z,0000380,01000600,0002.10,0000.80,0000.66,0000.93,-000.11,0000.00,0000.17,0000.13,0000.11,26.6,00.5,0660.2,34.7
2016-05-22T02:08:00Z,0000380,01000600,0001.59,0001.43,0000.53,0000.85,0000.48,0000.05,0000.17,0000.11,-000.24,26.5,00.6,0660.2,34.7
2016-05-22T02:09:00Z,0000380,01000600,0001.92,0000.22,0001.24,0000.72,-000.29,0000.30,0000.32,0000.25,0000.63,26.5,00.6,0660.2,34.7
2016-05-22T02:10:00Z,0000380,01000600,0001.69,0000.77,0000.95,0000.91,0000.26,0000.10,0000.17,0000.14,-000.19,26.5,00.6,0660.2,34.7
2016-05-22T02:11:00Z,0000380,01000600,0001.93,0001.51,0000.77,0000.50,-000.11,0000.27,0000.02,-000.00,0000.10,26.5,00.6,0660.1,34.7
2016-05-22T02:12:00Z,0000380,01000600,0001.49,0000.56,0000.84,0000.13,0000.13,0000.27,0000.34,0000.18,0000.19,26.5,00.7,0660.1,34.7
2016-05-22T02:13:00Z,0000380,01000600,0002.67,0000.81,0000.63,0000.37,-000.11,-000.19,0000.03,0000.31,0000.07,26.5,00.6,0660.1,34.7
2016-05-22T02:14:00Z,0000380,01000600,0001.34,0001.06,0001.16,0000.43,-000.21,0000.27,0000.10,0000.18,0000.42,26.5,00.7,0660.1,34.7
2016-05-22T02:15:00Z,0000380,01000600,0002.08,0000.88,0000.98,0000.75,0000.02,0000.26,0000.13,0000.07,-000.10,26.5,00.6,0660.1,34.6
2016-05-22T02:16:00Z,0000380,01000600,0001.27,0001.35,0001.10,0000.72,-000.30,-000.03,0000.30,0000.20,0000.17,26.5,00.7,0660.1,34.6
2016-05-22T02:17:00Z,0000380,01000600,0002.04,0001.55,0000.69,0000.13,0000.46,0000.30,0000.23,0000.16,-000.21,26.5,00.7,0660.1,34.6
2016-05-22T02:18:00Z,0000380,01000600,0002.11,0001.18,0000.55,0000.82,0000.21,0000.02,0000.17,0000.06,0000.47,26.5,00.7,0660.1,34.6
2016-05-22T02:19:00Z,0000380,01000600,0001.61,0001.03,0001.03,0000.53,0000.03,0000.19,0000.14,0000.21,-000.24,26.5,00.7,0660.1,34.6
2016-05-22T02:20:00Z,0000380,01000600,0002.05,0000.96,0000.56,0000.14,0000.16,0000.47,-000.00,0000.15,0000.47,26.6,00.8,0660.1,34.6
2016-05-22T02:21:00Z,0000380,01000600,0002.33,0001.35,0000.80,0000.74,0000.00,-000.19,0000.26,0000.03,-000.17,26.6,00.8,0660.1,34.6
2016-05-22T02:22:00Z,0000380,01000600,0002.19,0001.41,0001.10,0000.08,-000.03,-000.13,0000.34,0000.12,0000.32,26.6,00.7,0660.0,34.6
2016-05-22T02:23:00Z,0000380,01000600,0001.97,0001.53,0000.64,0000.35,-000.08,0000.16,-000.06,0000.32,0000.24,26.6,00.8,0660.0,34.6
2016-05-22T02:24:00Z,0000380,01000600,0002.59,0000.71,0001.17,0000.56,0000.08,0000.16,0000.27,0000.17,0000.19,26.6,00.8,0660.0,34.6
2016-05-22T02:25:00Z,0000380,01000600,0001.90,0000.93,0000.84,0000.75,-000.13,-000.16,0000.04,0000.15,-000.15,26.6,00.9,0660.1,34.6
2016-05-22T02:26:00Z,0000380,01000600,0001.62,0001.28,0000.43,0000.42,-000.29,0000.06,0000.34,0000.15,0000.28,26.6,00.8,0660.0,34.6
2016-05-22T02:27:00Z,0000380,01000600,0001.34,0001.17,0000.51,0000.91,0000.48,0000.14,0000.07,0000.15,0000.05,26.6,00.8,0660.1,34.6
2016-05-22T02:28:00Z,0000380,01000600,0002.16,0001.38,0000.77,0000.91,-000.11,0000.42,0000.35,0000.09,-000.32,26.6,00.8,0660.0,34.6
2016-05-22T02:29:00Z,0000380,01000600,0001.83,0001.40,0000.90,0000.64,-000.18,0000.63,0000.19,0000.17,0000.42,26.5,00.9,0660.0,34.6
2016-05-22T02:30:00Z,0000380,01000600,0002.17,0000.71,0000.68,0000.48,0000.05,0000.19,-000.01,0000.18,-000.12,26.5,00.9,0660.0,34.6
2016-05-22T02:31:00Z,0000380,01000600,0002.34,0000.97,0000.75,0000.35,0000.21,0000.08,0000.18,0000.04,0000.02,26.5,00.9,0660.0,34.6
2016-05-22T02:32:00Z,0000380,01000600,0002.06,0001.26,0000.92,0000.58,-000.27,-000.22,0000.59,0000.09,0000.42,26.5,00.9,0660.0,34.6
2016-05-22T02:33:00Z,0000380,01000600,0002.61,0000.98,0001.39,0001.12,0000.13,0000.06,-000.00,0000.40,0000.10,26.5,00.9,0660.0,34.6
2016-05-22T02:34:00Z,0000380,01000600,0002.80,0001.71,0001.40,0000.85,0000.16,0000.13,0000.22,0000.09,0000.22,26.5,01.0,0660.0,34.6
2016-05-22T02:35:00Z,0000380,01000600,0002.74,0001.47,0000.67,0000.90,0000.37,0000.14,0000.07,0000.18,0000.20,26.5,01.0,0660.1,34.6
2016-05-22T02:36:00Z,0000380,01000600,0002.37,0001.81,0001.30,0000.45,0000.21,-000.02,0000.18,0000.27,0000.34,26.5,01.0,0660.1,34.6
2016-05-22T02:37:00Z,0000380,01000600,0002.62,0001.25,0001.01,0000.48,0000.32,0000.18,0000.10,0000.11,0000.01,26.5,00.9,0660.0,34.6
2016-05-22T02:38:00Z,0000380,01000600,0002.64,0001.66,0001.46,0000.14,0000.33,0000.24,0000.07,0000.16,-000.11,26.5,00.9,0660.0,34.6
2016-05-22T02:39:00Z,0000380,01000600,0002.51,0001.71,0001.01,0000.59,-000.14,0000.42,0000.28,0000.06,0000.41,26.5,00.9,0660.1,34.6
2016-05-22T02:40:00Z,0000380,01000600,0001.38,0001.21,0000.79,0000.21,-000.34,0000.47,0000.01,0000.11,0000.12,26.6,01.0,0660.0,34.6
2016-05-22T02:41:00Z,0000380,01000600,0002.11,0001.13,0000.63,0000.61,0000.11,0000.14,0000.04,0000.23,-000.05,26.6,00.9,0660.0,34.6
2016-05-22T02:42:00Z,0000380,01000600,0001.99,0000.95,0000.72,0000.75,0000.03,0000.22,0000.36,0000.05,-000.04,26.6,00.9,0660.0,34.6
2016-05-22T02:43:00Z,0000380,01000600,0001.27,0000.75,0000.58,0000.42,-000.18,-000.08,0000.01,0000.10,0000.21,26.6,00.9,0660.0,34.6
2016-05-22T02:44:00Z,0000380,01000600,0002.00,0000.85,0000.63,0000.50,0000.45,0000.03,0000.23,-000.04,-000.30,26.6,00.9,0660.0,34.6
2016-05-22T02:45:00Z,0000380,01000600,0001.69,0000.88,0000.95,0000.78,-000.11,0000.24,0000.11,0000.13,0000.25,26.5,00.9,0660.0,34.6
2016-05-22T02:46:00Z,0000380,01000600,0001.26,0001.05,0001.00,0000.59,0000.11,0000.46,0000.19,0000.11,-000.07,26.5,00.9,0660.0,34.6
2016-05-22T02:47:00Z,0000380,01000600,0001.70,0001.25,0000.84,0000.14,-000.11,0000.30,0000.13,0000.07,-000.19,26.5,01.0,0660.0,34.6
2016-05-22T02:48:00Z,0000380,01000600,0001.78,0001.29,0000.50,0000.88,0000.14,0000.03,0000.07,0000.03,0000.41,26.5,00.9,0660.0,34.6
2016-05-22T02:49:00Z,0000380,01000600,0002.09,0001.24,0000.56,0000.83,-000.05,-000.03,0000.38,0000.17,0000.03,26.5,00.9,0660.0,34.6
2016-05-22T02:50:00Z,0000380,01000600,0002.99,0001.26,0000.70,0001.35,-000.16,0000.18,-000.15,0000.24,-000.01,26.5,01.0,0660.0,34.6
2016-05-22T02:51:00Z,0000380,01000600,0002.33,0001.16,0000.50,0000.30,-000.45,0000.29,0000.22,0000.27,0000.11,26.5,01.0,0660.0,34.6
2016-05-22T02:52:00Z,0000380,01000600,0002.12,0001.70,0000.58,0001.14,0000.18,-000.18,0000.23,-000.12,0000.17,26.5,01.0,0660.0,34.6
2016-05-22T02:53:00Z,0000380,01000600,0002.36,0001.27,0000.27,0000.29,0000.29,0000.32,0000.10,0000.28,0000.32,26.5,01.0,0660.0,34.6
2016-05-22T02:54:00Z,0000380,01000600,0002.20,0000.99,0000.52,0000.70,-000.22,0000.00,0000.05,0000.19,0000.25,26.5,01.0,0660.0,34.6
2016-05-22T02:55:00Z,0000380,01000600,0002.83,0001.36,0000.75,0000.96,0000.37,0000.13,0000.33,0000.13,0000.18,26.5,01.0,0660.0,34.6
2016-05-22T02:56:00Z,0000380,01000600,0002.05,0001.48,0001.04,0000.70,0000.24,0000.19,0000.06,0000.10,-000.12,26.5,01.0,0660.1,34.6
2016-05-22T02:57:00Z,0000380,41000600,,,,,,,,,,,,0660.1,34.6
2016-05-22T02:58:00Z,0000380,61000600,,,,,,,,,,26.4,00.8,0659.2,34.6
2016-05-22T02:59:00Z,0000380,21000600,,,,,,,,,,26.3,00.8,0659.1,34.6
2016-05-22T03:00:00Z,0000380,21000600,,,,,,,,,,26.3,00.8,0659.2,34.6
2016-05-22T03:01:00Z,0000380,21000600,,,,,,,,,,26.4,00.8,0659.2,34.6
2016-05-22T03:02:00Z,0000380,21000600,,,,,,,,,,26.5,00.8,0659.2,34.6
2016-05-22T03:03:00Z,0000380,61000600,,,,,,,,,,26.5,00.8,0659.2,34.6
2016-05-22T03:04:00Z,0000380,41010600,0002.74,0001.50,0001.02,0000.22,0000.38,0000.21,0000.20,0000.03,-000.00,26.6,01.0,0659.9,34.6
2016-05-22T03:05:00Z,0000380,01000600,0002.03,0001.63,0000.72,0000.40,0000.34,0000.13,0000.05,0000.01,-000.32,26.6,01.0,0660.0,34.6
2016-05-22T03:06:00Z,0000380,01000600,0002.89,0001.41,0000.52,0000.19,0000.14,0000.13,0000.23,0000.34,0000.59,26.6,01.0,0660.0,34.6
2016-05-22T03:07:00Z,0000380,01000600,0002.76,0002.40,0000.73,0000.16,0000.37,-000.16,0000.06,0000.04,-000.04,26.6,01.0,0660.0,34.6
2016-05-22T03:08:00Z,0000380,01000600,0002.36,0001.54,0001.18,0000.37,0000.46,0000.32,0000.12,0000.50,0000.44,26.6,01.0,0660.0,34.6
2016-05-22T03:09:00Z,0000380,01000600,0002.68,0000.89,0000.49,0000.30,0000.64,0000.13,0000.21,-000.03,-000.31,26.6,01.0,0660.0,34.6
2016-05-22T03:10:00Z,0000380,01000600,0002.41,0000.94,0000.74,-000.10,0000.21,0000.22,0000.23,-000.09,0000.02,26.6,01.0,0660.0,34.6
2016-05-22T03:11:00Z,0000380,01000600,0002.32,0001.75,0000.36,0000.26,0000.22,0000.13,0000.20,0000.31,0000.26,26.7,00.9,0660.0,34.6
2016-05-22T03:12:00Z,0000380,01000600,0002.80,0001.39,0001.13,0000.19,0000.41,0000.19,0000.16,-000.10,0000.57,26.7,01.0,0660.0,34.6